Cedar Rapids, IA

12:12 PM CST on December 11, 2019 (GMT -0600)
The Eastern Iowa Airport

Weather History for KCID - July, 2019

Change the Weather History Date:

Monday, July 22, 2019

  Actual Average Record
Temperature  
Mean Temperature 69 °F 73 °F  
Max Temperature 79 °F 83 °F 101 °F (1934)
Min Temperature 58 °F 63 °F 44 °F (1947)
Degree Days  
Heating Degree Days 0 0  
Month to date heating degree days 0 0  
Since 1 June heating degree days 11 29  
Since 1 July heating degree days 0 0  
Cooling Degree Days 4 8  
Month to date cooling degree days 263 176  
Year to date cooling degree days 436 391  
Since 1 June cooling degree days 408 342  
Growing Degree Days 20 (Base 50)    
Moisture  
Dew Point 59 °F    
Average Humidity 70    
Maximum Humidity 93    
Minimum Humidity 46    
Precipitation  
Precipitation 0.00 in 0.13 in 2.09 in (2011)
Month to date precipitation 1.65 3.30  
Year to date precipitation 22.03 19.66  
Sea Level Pressure  
Sea Level Pressure 30.10 in    
Wind  
Wind Speed 10 mph (North)    
Max Wind Speed 20 mph    
Max Gust Speed 33 mph    
Visibility 10 miles    
Events      
T = Trace of Precipitation, MM = Missing Value Source: NWS Daily Summary

Daily Weather History Graph

Daily Weather History Graph

Search for Another Location

Airport or City:

Astronomy

Jul. 22, 2019 Rise Set
Actual Time 5:50 AM CDT 8:35 PM CDT
Civil Twilight 5:18 AM CDT 9:07 PM CDT
Nautical Twilight 4:37 AM CDT 9:48 PM CDT
Astronomical Twilight 3:50 AM CDT 10:35 PM CDT
Moon 11:51 PM CDT (7/22) 11:12 AM CDT (7/22)
Length of Visible Light 15h 49m
Length of Day
14h 44m
Waning Gibbous, 72% of the Moon is Illuminated
Jul 22
Waning Gibbous
Jul 24
Last Quarter
Jul 31
New
Aug 7
First Quarter
Aug 15
Full

Hourly Weather History & Observations

Time (CDT) Temp. Dew Point Humidity Pressure Visibility Wind Dir Wind Speed Gust Speed Precip Events Conditions
12:52 AM 66.9 °F 61.0 °F 81% 30.04 in 10.0 mi NNW 5.8 mph - N/A   Clear
1:52 AM 66.9 °F 61.0 °F 81% 30.04 in 10.0 mi NNW 6.9 mph - N/A   Mostly Cloudy
2:52 AM 64.9 °F 61.0 °F 87% 30.04 in 10.0 mi NNW 4.6 mph - N/A   Scattered Clouds
3:52 AM 62.1 °F 60.1 °F 93% 30.04 in 10.0 mi NW 8.1 mph - N/A   Clear
4:52 AM 63.0 °F 60.1 °F 90% 30.04 in 10.0 mi NW 5.8 mph - N/A   Clear
5:52 AM 63.0 °F 60.1 °F 90% 30.06 in 10.0 mi NW 8.1 mph - N/A   Clear
6:52 AM 64.0 °F 61.0 °F 90% 30.08 in 10.0 mi NNW 4.6 mph - N/A   Clear
7:52 AM 66.9 °F 62.1 °F 84% 30.09 in 10.0 mi North 6.9 mph - N/A   Clear
8:52 AM 71.1 °F 63.0 °F 75% 30.09 in 10.0 mi NNE 12.7 mph - N/A   Clear
9:52 AM 72.0 °F 63.0 °F 73% 30.10 in 9.0 mi North 15.0 mph - N/A   Clear
10:52 AM 75.9 °F 64.0 °F 67% 30.11 in 10.0 mi North 15.0 mph - N/A   Partly Cloudy
11:52 AM 75.9 °F 62.1 °F 62% 30.12 in 10.0 mi NNE 11.5 mph 23.0 mph N/A   Partly Cloudy
12:52 PM 77.0 °F 59.0 °F 54% 30.12 in 10.0 mi North 15.0 mph - N/A   Partly Cloudy
1:52 PM 77.0 °F 57.9 °F 52% 30.12 in 10.0 mi North 15.0 mph 20.7 mph N/A   Scattered Clouds
2:52 PM 79.0 °F 60.1 °F 52% 30.12 in 10.0 mi NNE 15.0 mph - N/A   Scattered Clouds
3:52 PM 77.0 °F 57.0 °F 50% 30.12 in 10.0 mi North 15.0 mph 24.2 mph N/A   Scattered Clouds
4:52 PM 77.0 °F 57.9 °F 52% 30.12 in 10.0 mi North 13.8 mph - N/A   Partly Cloudy
5:52 PM 77.0 °F 55.9 °F 48% 30.12 in 10.0 mi NNW 10.4 mph 33.4 mph N/A   Partly Cloudy
6:52 PM 75.0 °F 54.0 °F 48% 30.12 in 10.0 mi North 12.7 mph - N/A   Clear
7:52 PM 72.0 °F 53.1 °F 51% 30.14 in 10.0 mi NNE 12.7 mph - N/A   Clear
8:52 PM 68.0 °F 53.1 °F 59% 30.14 in 10.0 mi North 9.2 mph - N/A   Clear
9:52 PM 64.9 °F 54.0 °F 68% 30.16 in 10.0 mi North 3.5 mph - N/A   Clear
10:52 PM 60.1 °F 55.0 °F 83% 30.16 in 10.0 mi NW 5.8 mph - N/A   Clear
11:52 PM 59.0 °F 54.0 °F 83% 30.17 in 10.0 mi NW 5.8 mph - N/A   Clear